Time,TemperatureF,DewpointF,PressureIn,WindDirection,WindDirectionDegrees,WindSpeedMPH,WindSpeedGustMPH,Humidity,HourlyPrecipIn,Conditions,Clouds,dailyrainin,SoftwareType,DateUTC
2013-05-19 00:03:00,55.0,51.0,-100.00,North,359,0.0,0.0,86,0.00,,,-99.99,,2013-05-19 04:03:00,
2013-05-19 00:13:00,55.0,51.0,-100.00,North,359,0.0,0.0,86,0.00,,,-99.99,,2013-05-19 04:13:00,
2013-05-19 00:23:00,55.0,51.0,-100.00,North,359,0.0,0.0,86,0.00,,,-99.99,,2013-05-19 04:23:00,
2013-05-19 00:33:00,56.0,51.0,-100.00,North,359,0.0,0.0,84,0.01,,,-99.99,,2013-05-19 04:33:00,
2013-05-19 00:42:00,56.0,51.0,-100.00,North,359,0.0,0.0,84,0.01,,,-99.99,,2013-05-19 04:42:00,
2013-05-19 00:53:00,56.0,51.0,-100.00,North,359,0.0,0.0,84,0.01,,,-99.99,,2013-05-19 04:53:00,
2013-05-19 01:02:00,56.0,51.0,-100.00,North,359,0.0,0.0,84,0.01,,,-99.99,,2013-05-19 05:02:00,
2013-05-19 01:12:00,56.0,51.0,-100.00,North,359,0.0,0.0,84,0.01,,,-99.99,,2013-05-19 05:12:00,
2013-05-19 01:32:00,56.0,51.0,-100.00,North,359,0.0,0.0,84,0.00,,,-99.99,,2013-05-19 05:32:00,
2013-05-19 01:42:00,56.0,51.0,-100.00,North,359,0.0,0.0,84,0.00,,,-99.99,,2013-05-19 05:42:00,
2013-05-19 01:52:00,56.0,51.0,-100.00,North,359,0.0,0.0,84,0.00,,,-99.99,,2013-05-19 05:52:00,
2013-05-19 02:02:00,55.0,50.0,-100.00,North,359,0.0,0.0,84,0.01,,,-99.99,,2013-05-19 06:02:00,
2013-05-19 02:12:00,55.0,50.0,-100.00,North,359,0.0,0.0,84,0.01,,,-99.99,,2013-05-19 06:12:00,
2013-05-19 02:21:00,55.0,50.0,-100.00,North,359,0.0,0.0,84,0.01,,,-99.99,,2013-05-19 06:21:00,
2013-05-19 02:32:00,55.0,50.0,-100.00,North,359,0.0,0.0,83,0.01,,,-99.99,,2013-05-19 06:32:00,
2013-05-19 02:42:00,55.0,50.0,-100.00,North,359,0.0,0.0,83,0.01,,,-99.99,,2013-05-19 06:42:00,
2013-05-19 02:52:00,55.0,50.0,-100.00,North,359,0.0,0.0,83,0.01,,,-99.99,,2013-05-19 06:52:00,
2013-05-19 03:01:00,55.0,50.0,-100.00,North,359,0.0,0.0,83,0.00,,,-99.99,,2013-05-19 07:01:00,
2013-05-19 03:11:00,55.0,50.0,-100.00,North,359,0.0,0.0,83,0.00,,,-99.99,,2013-05-19 07:11:00,
2013-05-19 03:21:00,55.0,50.0,-100.00,North,359,0.0,0.0,83,0.00,,,-99.99,,2013-05-19 07:21:00,
2013-05-19 03:32:00,55.0,50.0,-100.00,North,359,0.0,0.0,83,0.00,,,-99.99,,2013-05-19 07:32:00,
2013-05-19 03:42:00,55.0,50.0,-100.00,North,359,0.0,0.0,83,0.00,,,-99.99,,2013-05-19 07:42:00,
2013-05-19 03:52:00,55.0,50.0,-100.00,North,359,0.0,0.0,83,0.00,,,-99.99,,2013-05-19 07:52:00,
2013-05-19 04:02:00,55.0,50.0,-100.00,North,359,0.0,1.0,83,0.00,,,-99.99,,2013-05-19 08:02:00,
2013-05-19 04:12:00,55.0,50.0,-100.00,North,359,0.0,1.0,83,0.00,,,-99.99,,2013-05-19 08:12:00,
2013-05-19 04:22:00,55.0,50.0,-100.00,North,359,0.0,0.0,83,0.00,,,-99.99,,2013-05-19 08:22:00,
2013-05-19 04:32:00,55.0,50.0,-100.00,NNW,335,0.0,8.0,83,0.00,,,-99.99,,2013-05-19 08:32:00,
2013-05-19 04:42:00,55.0,50.0,-100.00,NNW,335,0.0,8.0,83,0.00,,,-99.99,,2013-05-19 08:42:00,
2013-05-19 04:52:00,55.0,50.0,-100.00,North,0,2.0,6.0,83,0.00,,,-99.99,,2013-05-19 08:52:00,
2013-05-19 05:02:00,55.0,50.0,-100.00,North,359,0.0,5.0,83,0.00,,,-99.99,,2013-05-19 09:02:00,
2013-05-19 05:12:00,55.0,50.0,-100.00,North,359,0.0,5.0,83,0.00,,,-99.99,,2013-05-19 09:12:00,
2013-05-19 05:21:00,55.0,50.0,-100.00,North,359,0.0,5.0,83,0.00,,,-99.99,,2013-05-19 09:21:00,
2013-05-19 05:32:00,55.0,50.0,-100.00,North,359,0.0,7.0,83,0.00,,,-99.99,,2013-05-19 09:32:00,
2013-05-19 05:43:00,55.0,50.0,-100.00,North,359,0.0,7.0,83,0.00,,,-99.99,,2013-05-19 09:43:00,
2013-05-19 05:53:00,55.0,50.0,-100.00,North,359,0.0,0.0,82,0.00,,,-99.99,,2013-05-19 09:53:00,
2013-05-19 06:03:00,55.0,50.0,-100.00,North,359,0.0,0.0,82,0.00,,,-99.99,,2013-05-19 10:03:00,
2013-05-19 06:12:00,55.0,50.0,-100.00,North,359,0.0,0.0,82,0.00,,,-99.99,,2013-05-19 10:12:00,
2013-05-19 06:23:00,55.0,50.0,-100.00,North,359,0.0,0.0,82,0.00,,,-99.99,,2013-05-19 10:23:00,
2013-05-19 06:33:00,55.0,50.0,-100.00,North,359,0.0,0.0,83,0.01,,,-99.99,,2013-05-19 10:33:00,
2013-05-19 06:42:00,55.0,50.0,-100.00,North,359,0.0,0.0,83,0.01,,,-99.99,,2013-05-19 10:42:00,
2013-05-19 06:53:00,55.0,50.0,-100.00,North,359,0.0,0.0,83,0.01,,,-99.99,,2013-05-19 10:53:00,
2013-05-19 07:02:00,55.0,50.0,-100.00,North,359,0.0,0.0,83,0.01,,,-99.99,,2013-05-19 11:02:00,
2013-05-19 07:22:00,55.0,50.0,-100.00,North,359,0.0,0.0,83,0.00,,,-99.99,,2013-05-19 11:22:00,
2013-05-19 07:32:00,55.0,50.0,-100.00,North,359,0.0,0.0,83,0.00,,,-99.99,,2013-05-19 11:32:00,
2013-05-19 07:42:00,55.0,50.0,-100.00,North,359,0.0,0.0,83,0.00,,,-99.99,,2013-05-19 11:42:00,
2013-05-19 07:52:00,55.0,50.0,-100.00,North,359,0.0,0.0,83,0.00,,,-99.99,,2013-05-19 11:52:00,
2013-05-19 08:01:00,55.0,50.0,-100.00,North,359,0.0,0.0,83,0.00,,,-99.99,,2013-05-19 12:01:00,
2013-05-19 08:12:00,55.0,50.0,-100.00,North,359,0.0,0.0,83,0.00,,,-99.99,,2013-05-19 12:12:00,
2013-05-19 08:22:00,55.0,50.0,-100.00,North,359,0.0,0.0,83,0.00,,,-99.99,,2013-05-19 12:22:00,
2013-05-19 08:32:00,55.0,50.0,-100.00,North,359,0.0,0.0,82,0.01,,,-99.99,,2013-05-19 12:32:00,
2013-05-19 08:42:00,55.0,50.0,-100.00,North,359,0.0,0.0,82,0.01,,,-99.99,,2013-05-19 12:42:00,
2013-05-19 08:52:00,55.0,50.0,-100.00,North,359,0.0,0.0,82,0.01,,,-99.99,,2013-05-19 12:52:00,
2013-05-19 09:01:00,56.0,51.0,-100.00,North,359,0.0,0.0,82,0.01,,,-99.99,,2013-05-19 13:01:00,
2013-05-19 09:11:00,56.0,51.0,-100.00,North,359,0.0,0.0,82,0.01,,,-99.99,,2013-05-19 13:11:00,
2013-05-19 09:21:00,56.0,51.0,-100.00,North,359,0.0,0.0,82,0.01,,,-99.99,,2013-05-19 13:21:00,
2013-05-19 09:32:00,56.0,50.0,-100.00,North,359,0.0,0.0,81,0.00,,,-99.99,,2013-05-19 13:32:00,
2013-05-19 09:42:00,56.0,50.0,-100.00,North,359,0.0,0.0,81,0.00,,,-99.99,,2013-05-19 13:42:00,
2013-05-19 09:52:00,56.0,50.0,-100.00,North,359,0.0,0.0,81,0.00,,,-99.99,,2013-05-19 13:52:00,
2013-05-19 10:02:00,57.0,51.0,-100.00,North,359,0.0,0.0,81,0.00,,,-99.99,,2013-05-19 14:02:00,
2013-05-19 10:11:00,57.0,51.0,-100.00,North,359,0.0,0.0,81,0.00,,,-99.99,,2013-05-19 14:11:00,
2013-05-19 10:21:00,57.0,51.0,-100.00,North,359,0.0,0.0,81,0.00,,,-99.99,,2013-05-19 14:21:00,
2013-05-19 10:32:00,57.0,51.0,-100.00,North,359,0.0,0.0,80,0.00,,,-99.99,,2013-05-19 14:32:00,
2013-05-19 10:42:00,57.0,51.0,-100.00,North,359,0.0,0.0,80,0.00,,,-99.99,,2013-05-19 14:42:00,
2013-05-19 10:52:00,57.0,51.0,-100.00,North,359,0.0,0.0,80,0.00,,,-99.99,,2013-05-19 14:52:00,
2013-05-19 11:02:00,57.0,51.0,-100.00,North,359,0.0,0.0,80,0.00,,,-99.99,,2013-05-19 15:02:00,
2013-05-19 11:11:00,57.0,51.0,-100.00,North,359,0.0,0.0,80,0.00,,,-99.99,,2013-05-19 15:11:00,
2013-05-19 11:22:00,57.0,51.0,-100.00,North,359,0.0,0.0,80,0.00,,,-99.99,,2013-05-19 15:22:00,
2013-05-19 11:33:00,57.0,51.0,-100.00,North,359,0.0,0.0,80,0.00,,,-99.99,,2013-05-19 15:33:00,
2013-05-19 12:03:00,59.0,51.0,-100.00,North,359,0.0,0.0,76,0.00,,,-99.99,,2013-05-19 16:03:00,
2013-05-19 12:12:00,59.0,51.0,-100.00,North,359,0.0,0.0,76,0.00,,,-99.99,,2013-05-19 16:12:00,
2013-05-19 12:23:00,59.0,51.0,-100.00,North,359,0.0,0.0,75,0.00,,,-99.99,,2013-05-19 16:23:00,
2013-05-19 12:32:00,61.0,52.0,-100.00,North,359,0.0,0.0,72,0.00,,,-99.99,,2013-05-19 16:32:00,
2013-05-19 12:42:00,61.0,52.0,-100.00,North,359,0.0,0.0,72,0.00,,,-99.99,,2013-05-19 16:42:00,
2013-05-19 12:52:00,61.0,52.0,-100.00,North,359,0.0,0.0,71,0.00,,,-99.99,,2013-05-19 16:52:00,
2013-05-19 13:02:00,63.0,52.0,-100.00,North,359,0.0,0.0,68,0.00,,,-99.99,,2013-05-19 17:02:00,
2013-05-19 13:12:00,63.0,52.0,-100.00,North,359,0.0,0.0,68,0.00,,,-99.99,,2013-05-19 17:12:00,
2013-05-19 13:22:00,63.0,52.0,-100.00,North,359,0.0,0.0,68,0.00,,,-99.99,,2013-05-19 17:22:00,
2013-05-19 13:32:00,63.0,52.0,-100.00,North,359,0.0,0.0,68,0.00,,,-99.99,,2013-05-19 17:32:00,
2013-05-19 13:42:00,63.0,52.0,-100.00,North,359,0.0,0.0,68,0.00,,,-99.99,,2013-05-19 17:42:00,
2013-05-19 13:52:00,60.0,53.0,-100.00,North,359,0.0,0.0,79,0.00,,,-99.99,,2013-05-19 17:52:00,
2013-05-19 14:02:00,59.0,53.0,-100.00,North,359,0.0,0.0,81,0.00,,,-99.99,,2013-05-19 18:02:00,
2013-05-19 14:12:00,59.0,53.0,-100.00,North,359,0.0,0.0,81,0.00,,,-99.99,,2013-05-19 18:12:00,
2013-05-19 14:22:00,59.0,53.0,-100.00,North,359,0.0,0.0,81,0.00,,,-99.99,,2013-05-19 18:22:00,
2013-05-19 14:32:00,59.0,53.0,-100.00,North,359,0.0,0.0,81,0.00,,,-99.99,,2013-05-19 18:32:00,
2013-05-19 14:42:00,59.0,53.0,-100.00,North,359,0.0,0.0,81,0.00,,,-99.99,,2013-05-19 18:42:00,
2013-05-19 14:53:00,59.0,53.0,-100.00,North,359,0.0,0.0,81,0.00,,,-99.99,,2013-05-19 18:53:00,
2013-05-19 15:01:00,58.0,53.0,-100.00,North,359,0.0,0.0,82,0.00,,,-99.99,,2013-05-19 19:01:00,
2013-05-19 15:11:00,58.0,53.0,-100.00,North,359,0.0,0.0,82,0.00,,,-99.99,,2013-05-19 19:11:00,
2013-05-19 15:22:00,58.0,53.0,-100.00,North,359,0.0,0.0,82,0.00,,,-99.99,,2013-05-19 19:22:00,
2013-05-19 15:32:00,59.0,53.0,-100.00,North,359,0.0,0.0,80,0.00,,,-99.99,,2013-05-19 19:32:00,
2013-05-19 15:42:00,59.0,53.0,-100.00,North,359,0.0,0.0,80,0.00,,,-99.99,,2013-05-19 19:42:00,
2013-05-19 15:52:00,59.0,53.0,-100.00,North,359,0.0,0.0,80,0.00,,,-99.99,,2013-05-19 19:52:00,
2013-05-19 16:02:00,59.0,53.0,-100.00,North,359,0.0,0.0,80,0.00,,,-99.99,,2013-05-19 20:02:00,
2013-05-19 16:11:00,59.0,53.0,-100.00,North,359,0.0,0.0,80,0.00,,,-99.99,,2013-05-19 20:11:00,
2013-05-19 16:22:00,59.0,53.0,-100.00,North,359,0.0,0.0,80,0.00,,,-99.99,,2013-05-19 20:22:00,
2013-05-19 16:32:00,59.0,53.0,-100.00,North,359,0.0,0.0,80,0.00,,,-99.99,,2013-05-19 20:32:00,
2013-05-19 16:42:00,59.0,53.0,-100.00,North,359,0.0,0.0,80,0.00,,,-99.99,,2013-05-19 20:42:00,
2013-05-19 16:52:00,58.0,53.0,-100.00,North,359,0.0,0.0,82,0.00,,,-99.99,,2013-05-19 20:52:00,
2013-05-19 17:02:00,58.0,53.0,-100.00,North,359,0.0,0.0,82,0.00,,,-99.99,,2013-05-19 21:02:00,
2013-05-19 17:11:00,58.0,53.0,-100.00,North,359,0.0,0.0,82,0.00,,,-99.99,,2013-05-19 21:11:00,
2013-05-19 17:22:00,58.0,53.0,-100.00,North,359,0.0,0.0,83,0.00,,,-99.99,,2013-05-19 21:22:00,
2013-05-19 17:32:00,58.0,53.0,-100.00,North,359,0.0,0.0,84,0.00,,,-99.99,,2013-05-19 21:32:00,
2013-05-19 17:43:00,58.0,53.0,-100.00,North,359,0.0,0.0,84,0.00,,,-99.99,,2013-05-19 21:43:00,
2013-05-19 17:53:00,58.0,53.0,-100.00,North,359,0.0,0.0,84,0.00,,,-99.99,,2013-05-19 21:53:00,
2013-05-19 18:03:00,57.0,52.0,-100.00,North,359,0.0,0.0,84,0.02,,,-99.99,,2013-05-19 22:03:00,
2013-05-19 18:12:00,57.0,52.0,-100.00,North,359,0.0,0.0,84,0.02,,,-99.99,,2013-05-19 22:12:00,
2013-05-19 18:23:00,56.0,52.0,-100.00,North,359,0.0,0.0,85,0.04,,,-99.99,,2013-05-19 22:23:00,
2013-05-19 18:33:00,56.0,52.0,-100.00,North,359,0.0,0.0,86,0.13,,,-99.99,,2013-05-19 22:33:00,
2013-05-19 18:42:00,56.0,52.0,-100.00,North,359,0.0,0.0,86,0.13,,,-99.99,,2013-05-19 22:42:00,
2013-05-19 18:52:00,56.0,52.0,-100.00,North,359,0.0,0.0,86,0.13,,,-99.99,,2013-05-19 22:52:00,
2013-05-19 19:03:00,56.0,52.0,-100.00,North,359,0.0,0.0,86,0.13,,,-99.99,,2013-05-19 23:03:00,
2013-05-19 19:12:00,56.0,52.0,-100.00,North,359,0.0,0.0,86,0.13,,,-99.99,,2013-05-19 23:12:00,
2013-05-19 19:22:00,54.0,50.0,-100.00,North,359,0.0,0.0,86,0.11,,,-99.99,,2013-05-19 23:22:00,
2013-05-19 19:32:00,54.0,50.0,-100.00,North,359,0.0,0.0,86,0.03,,,-99.99,,2013-05-19 23:32:00,
2013-05-19 19:42:00,54.0,50.0,-100.00,North,359,0.0,0.0,86,0.01,,,-99.99,,2013-05-19 23:42:00,
2013-05-19 19:52:00,54.0,50.0,-100.00,North,359,0.0,0.0,86,0.01,,,-99.99,,2013-05-19 23:52:00,
2013-05-19 20:02:00,55.0,51.0,-100.00,North,359,0.0,0.0,85,0.01,,,-99.99,,2013-05-20 00:02:00,
2013-05-19 20:11:00,55.0,51.0,-100.00,North,359,0.0,0.0,85,0.01,,,-99.99,,2013-05-20 00:11:00,
2013-05-19 20:22:00,55.0,51.0,-100.00,North,359,0.0,0.0,85,0.01,,,-99.99,,2013-05-20 00:22:00,
2013-05-19 20:32:00,54.0,50.0,-100.00,North,359,0.0,0.0,85,0.00,,,-99.99,,2013-05-20 00:32:00,
2013-05-19 20:42:00,54.0,50.0,-100.00,North,359,0.0,0.0,85,0.00,,,-99.99,,2013-05-20 00:42:00,
2013-05-19 20:52:00,54.0,49.0,-100.00,North,359,0.0,0.0,84,0.00,,,-99.99,,2013-05-20 00:52:00,
2013-05-19 21:01:00,55.0,50.0,-100.00,North,359,0.0,0.0,84,0.00,,,-99.99,,2013-05-20 01:01:00,
2013-05-19 21:11:00,55.0,50.0,-100.00,North,359,0.0,0.0,84,0.00,,,-99.99,,2013-05-20 01:11:00,
2013-05-19 21:21:00,55.0,50.0,-100.00,North,359,0.0,0.0,84,0.00,,,-99.99,,2013-05-20 01:21:00,
2013-05-19 21:32:00,55.0,50.0,-100.00,North,359,0.0,0.0,84,0.00,,,-99.99,,2013-05-20 01:32:00,
2013-05-19 21:42:00,55.0,50.0,-100.00,North,359,0.0,0.0,84,0.00,,,-99.99,,2013-05-20 01:42:00,
2013-05-19 21:52:00,54.0,49.0,-100.00,North,359,0.0,0.0,84,0.00,,,-99.99,,2013-05-20 01:52:00,
2013-05-19 22:02:00,53.0,49.0,-100.00,North,359,0.0,0.0,85,0.00,,,-99.99,,2013-05-20 02:02:00,
2013-05-19 22:12:00,53.0,49.0,-100.00,North,359,0.0,0.0,85,0.00,,,-99.99,,2013-05-20 02:12:00,
2013-05-19 22:21:00,53.0,49.0,-100.00,North,359,0.0,0.0,85,0.00,,,-99.99,,2013-05-20 02:21:00,
2013-05-19 22:32:00,53.0,48.0,-100.00,North,359,0.0,0.0,84,0.00,,,-99.99,,2013-05-20 02:32:00,
2013-05-19 22:42:00,53.0,48.0,-100.00,North,359,0.0,0.0,84,0.00,,,-99.99,,2013-05-20 02:42:00,
2013-05-19 22:52:00,53.0,48.0,-100.00,North,359,0.0,0.0,84,0.00,,,-99.99,,2013-05-20 02:52:00,
2013-05-19 23:02:00,54.0,50.0,-100.00,North,359,0.0,0.0,85,0.00,,,-99.99,,2013-05-20 03:02:00,
2013-05-19 23:12:00,54.0,51.0,-100.00,North,359,0.0,0.0,88,0.00,,,-99.99,,2013-05-20 03:12:00,
2013-05-19 23:21:00,54.0,51.0,-100.00,North,359,0.0,0.0,88,0.00,,,-99.99,,2013-05-20 03:21:00,
2013-05-19 23:33:00,54.0,51.0,-100.00,North,359,0.0,0.0,89,0.00,,,-99.99,,2013-05-20 03:33:00,
2013-05-19 23:43:00,55.0,52.0,-100.00,North,359,0.0,0.0,89,0.00,,,-99.99,,2013-05-20 03:43:00,
2013-05-19 23:52:00,55.0,52.0,-100.00,North,359,0.0,0.0,89,0.00,,,-99.99,,2013-05-20 03:52:00,